Time,TemperatureF,DewpointF,PressureIn,WindDirection,WindDirectionDegrees,WindSpeedMPH,WindSpeedGustMPH,Humidity,HourlyPrecipIn,Conditions,Clouds,dailyrainin,SoftwareType,DateUTC
2013-03-08 00:02:00,33.0,25.0,-100.00,East,94,1.0,5.0,72,0.00,,,0.18,,2013-03-08 05:02:00,
2013-03-08 00:33:00,32.0,25.0,-100.00,ENE,74,2.0,6.0,74,0.00,,,0.18,,2013-03-08 05:33:00,
2013-03-08 00:42:00,32.0,25.0,-100.00,ENE,74,2.0,6.0,74,0.00,,,0.18,,2013-03-08 05:42:00,
2013-03-08 00:52:00,32.0,25.0,-100.00,ENE,74,2.0,6.0,74,0.00,,,0.18,,2013-03-08 05:52:00,
2013-03-08 01:01:00,32.0,25.0,-100.00,ENE,74,2.0,6.0,74,0.00,,,0.18,,2013-03-08 06:01:00,
2013-03-08 01:32:00,31.0,23.0,-100.00,East,98,0.0,4.0,73,0.00,,,0.18,,2013-03-08 06:32:00,
2013-03-08 01:42:00,31.0,23.0,-100.00,East,98,0.0,4.0,73,0.00,,,0.18,,2013-03-08 06:42:00,
2013-03-08 01:52:00,31.0,23.0,-100.00,East,98,0.0,4.0,73,0.00,,,0.18,,2013-03-08 06:52:00,
2013-03-08 02:01:00,31.0,23.0,-100.00,East,98,0.0,4.0,73,0.00,,,0.18,,2013-03-08 07:01:00,
2013-03-08 02:32:00,31.0,23.0,-100.00,ESE,105,1.0,6.0,72,0.00,,,0.18,,2013-03-08 07:32:00,
2013-03-08 02:42:00,31.0,23.0,-100.00,ESE,105,1.0,6.0,72,0.00,,,0.18,,2013-03-08 07:42:00,
2013-03-08 02:52:00,31.0,23.0,-100.00,ESE,105,1.0,6.0,72,0.00,,,0.18,,2013-03-08 07:52:00,
2013-03-08 03:01:00,31.0,23.0,-100.00,ESE,105,1.0,6.0,72,0.00,,,0.18,,2013-03-08 08:01:00,
2013-03-08 03:32:00,30.0,23.0,-100.00,NW,309,0.0,4.0,76,0.00,,,0.18,,2013-03-08 08:32:00,
2013-03-08 03:42:00,30.0,23.0,-100.00,NW,309,0.0,4.0,76,0.00,,,0.18,,2013-03-08 08:42:00,
2013-03-08 03:52:00,30.0,23.0,-100.00,NW,309,0.0,4.0,76,0.00,,,0.18,,2013-03-08 08:52:00,
2013-03-08 04:03:00,30.0,23.0,-100.00,NW,309,0.0,4.0,76,0.00,,,0.18,,2013-03-08 09:03:00,
2013-03-08 04:32:00,28.0,23.0,-100.00,NNW,342,0.0,0.0,80,0.00,,,0.18,,2013-03-08 09:32:00,
2013-03-08 04:42:00,28.0,23.0,-100.00,NNW,342,0.0,0.0,80,0.00,,,0.18,,2013-03-08 09:42:00,
2013-03-08 04:52:00,28.0,23.0,-100.00,NNW,342,0.0,0.0,80,0.00,,,0.18,,2013-03-08 09:52:00,
2013-03-08 05:01:00,28.0,23.0,-100.00,NNW,342,0.0,0.0,80,0.00,,,0.18,,2013-03-08 10:01:00,
2013-03-08 05:32:00,28.0,24.0,-100.00,East,91,0.0,0.0,83,0.00,,,0.18,,2013-03-08 10:32:00,
2013-03-08 05:42:00,28.0,24.0,-100.00,East,91,0.0,0.0,83,0.00,,,0.18,,2013-03-08 10:42:00,
2013-03-08 05:52:00,28.0,24.0,-100.00,East,91,0.0,0.0,83,0.00,,,0.18,,2013-03-08 10:52:00,
2013-03-08 06:01:00,28.0,24.0,-100.00,East,91,0.0,0.0,83,0.00,,,0.18,,2013-03-08 11:01:00,
2013-03-08 06:32:00,27.0,23.0,-100.00,ENE,75,1.0,2.0,83,0.00,,,0.18,,2013-03-08 11:32:00,
2013-03-08 06:42:00,27.0,23.0,-100.00,ENE,75,1.0,2.0,83,0.00,,,0.18,,2013-03-08 11:42:00,
2013-03-08 06:52:00,27.0,23.0,-100.00,ENE,75,1.0,2.0,83,0.00,,,0.18,,2013-03-08 11:52:00,
2013-03-08 07:01:00,27.0,23.0,-100.00,ENE,75,1.0,2.0,83,0.00,,,0.18,,2013-03-08 12:01:00,
2013-03-08 07:32:00,27.0,23.0,-100.00,ENE,74,2.0,4.0,83,0.00,,,0.18,,2013-03-08 12:32:00,
2013-03-08 07:43:00,27.0,23.0,-100.00,ENE,74,2.0,4.0,83,0.00,,,0.18,,2013-03-08 12:43:00,
2013-03-08 07:53:00,27.0,23.0,-100.00,ENE,74,2.0,4.0,83,0.00,,,0.18,,2013-03-08 12:53:00,
2013-03-08 08:01:00,27.0,23.0,-100.00,ENE,74,2.0,4.0,83,0.00,,,0.18,,2013-03-08 13:01:00,
2013-03-08 08:42:00,31.0,25.0,-100.00,ESE,102,2.0,7.0,77,0.00,,,-99.99,,2013-03-08 13:42:00,
2013-03-08 08:52:00,31.0,25.0,-100.00,ESE,102,2.0,7.0,77,0.00,,,-99.99,,2013-03-08 13:52:00,
2013-03-08 09:02:00,31.0,25.0,-100.00,ESE,102,2.0,7.0,77,0.00,,,-99.99,,2013-03-08 14:02:00,
2013-03-08 09:32:00,36.0,25.0,-100.00,ESE,116,3.0,8.0,65,0.00,,,0.18,,2013-03-08 14:32:00,
2013-03-08 09:42:00,36.0,25.0,-100.00,ESE,116,3.0,8.0,65,0.00,,,0.18,,2013-03-08 14:42:00,
2013-03-08 09:52:00,36.0,25.0,-100.00,ESE,116,3.0,8.0,65,0.00,,,0.18,,2013-03-08 14:52:00,
2013-03-08 10:03:00,36.0,25.0,-100.00,ESE,116,3.0,8.0,65,0.00,,,0.18,,2013-03-08 15:03:00,
2013-03-08 10:32:00,38.0,23.0,-100.00,SE,131,5.0,15.0,55,0.00,,,0.18,,2013-03-08 15:32:00,
2013-03-08 10:43:00,38.0,23.0,-100.00,SE,131,5.0,15.0,55,0.00,,,0.18,,2013-03-08 15:43:00,
2013-03-08 10:53:00,38.0,23.0,-100.00,SE,131,5.0,15.0,55,0.00,,,0.18,,2013-03-08 15:53:00,
2013-03-08 11:01:00,38.0,23.0,-100.00,SE,131,5.0,15.0,55,0.00,,,0.18,,2013-03-08 16:01:00,
2013-03-08 11:32:00,40.0,22.0,-100.00,ESE,119,5.0,11.0,49,0.00,,,-99.99,,2013-03-08 16:32:00,
2013-03-08 11:42:00,40.0,22.0,-100.00,ESE,119,5.0,11.0,49,0.00,,,-99.99,,2013-03-08 16:42:00,
2013-03-08 11:52:00,40.0,22.0,-100.00,ESE,119,5.0,11.0,49,0.00,,,-99.99,,2013-03-08 16:52:00,
2013-03-08 12:02:00,40.0,22.0,-100.00,ESE,119,5.0,11.0,49,0.00,,,-99.99,,2013-03-08 17:02:00,
2013-03-08 12:32:00,42.0,24.0,-100.00,SSE,159,4.0,10.0,49,0.00,,,0.11,,2013-03-08 17:32:00,
2013-03-08 12:42:00,42.0,24.0,-100.00,SSE,159,4.0,10.0,49,0.00,,,0.11,,2013-03-08 17:42:00,
2013-03-08 12:52:00,42.0,24.0,-100.00,SSE,159,4.0,10.0,49,0.00,,,0.11,,2013-03-08 17:52:00,
2013-03-08 13:02:00,42.0,24.0,-100.00,SSE,159,4.0,10.0,49,0.00,,,0.11,,2013-03-08 18:02:00,
2013-03-08 13:32:00,44.0,25.0,-100.00,ESE,104,3.0,10.0,47,0.00,,,0.06,,2013-03-08 18:32:00,
2013-03-08 13:42:00,44.0,25.0,-100.00,ESE,104,3.0,10.0,47,0.00,,,0.06,,2013-03-08 18:42:00,
2013-03-08 13:52:00,44.0,25.0,-100.00,ESE,104,3.0,10.0,47,0.00,,,0.06,,2013-03-08 18:52:00,
2013-03-08 14:01:00,44.0,25.0,-100.00,ESE,104,3.0,10.0,47,0.00,,,0.06,,2013-03-08 19:01:00,
2013-03-08 14:42:00,46.0,26.0,-100.00,South,175,4.0,9.0,45,0.00,,,0.01,,2013-03-08 19:42:00,
2013-03-08 14:52:00,46.0,26.0,-100.00,South,175,4.0,9.0,45,0.00,,,0.01,,2013-03-08 19:52:00,
2013-03-08 15:01:00,46.0,26.0,-100.00,South,175,4.0,9.0,45,0.00,,,0.01,,2013-03-08 20:01:00,
2013-03-08 15:32:00,47.0,26.0,-100.00,SSE,151,4.0,10.0,43,0.00,,,0.00,,2013-03-08 20:32:00,
2013-03-08 15:42:00,47.0,26.0,-100.00,SSE,151,4.0,10.0,43,0.00,,,0.00,,2013-03-08 20:42:00,
2013-03-08 15:53:00,47.0,26.0,-100.00,SSE,151,4.0,10.0,43,0.00,,,0.00,,2013-03-08 20:53:00,
2013-03-08 16:02:00,47.0,26.0,-100.00,SSE,151,4.0,10.0,43,0.00,,,0.00,,2013-03-08 21:02:00,
2013-03-08 16:33:00,49.0,27.0,-100.00,South,176,2.0,13.0,43,0.00,,,0.00,,2013-03-08 21:33:00,
2013-03-08 16:42:00,49.0,27.0,-100.00,South,176,2.0,13.0,43,0.00,,,0.00,,2013-03-08 21:42:00,
2013-03-08 16:52:00,49.0,27.0,-100.00,South,176,2.0,13.0,43,0.00,,,0.00,,2013-03-08 21:52:00,
2013-03-08 17:01:00,49.0,27.0,-100.00,South,176,2.0,13.0,43,0.00,,,0.00,,2013-03-08 22:01:00,
2013-03-08 17:42:00,48.0,26.0,-100.00,ESE,118,2.0,9.0,42,0.00,,,0.00,,2013-03-08 22:42:00,
2013-03-08 17:53:00,48.0,26.0,-100.00,ESE,118,2.0,9.0,42,0.00,,,0.00,,2013-03-08 22:53:00,
2013-03-08 18:01:00,48.0,26.0,-100.00,ESE,118,2.0,9.0,42,0.00,,,0.00,,2013-03-08 23:01:00,
2013-03-08 18:42:00,45.0,25.0,-100.00,East,98,2.0,7.0,45,0.00,,,0.00,,2013-03-08 23:42:00,
2013-03-08 18:53:00,45.0,25.0,-100.00,East,98,2.0,7.0,45,0.00,,,0.00,,2013-03-08 23:53:00,
2013-03-08 19:02:00,45.0,25.0,-100.00,East,98,2.0,7.0,45,0.00,,,0.00,,2013-03-09 00:02:00,
2013-03-08 19:42:00,41.0,25.0,-100.00,SE,131,1.0,5.0,52,0.00,,,-99.99,,2013-03-09 00:42:00,
2013-03-08 19:52:00,41.0,25.0,-100.00,SE,131,1.0,5.0,52,0.00,,,-99.99,,2013-03-09 00:52:00,
2013-03-08 20:01:00,41.0,25.0,-100.00,SE,131,1.0,5.0,52,0.00,,,-99.99,,2013-03-09 01:01:00,
2013-03-08 22:32:00,38.0,25.0,-100.00,SE,133,2.0,7.0,60,-99.99,,,0.00,,2013-03-09 03:32:00,
2013-03-08 22:42:00,38.0,25.0,-100.00,SE,133,2.0,7.0,60,-99.99,,,0.00,,2013-03-09 03:42:00,
2013-03-08 22:52:00,38.0,25.0,-100.00,SE,133,2.0,7.0,60,-99.99,,,0.00,,2013-03-09 03:52:00,
2013-03-08 23:01:00,38.0,25.0,-100.00,SE,133,2.0,7.0,60,-99.99,,,0.00,,2013-03-09 04:01:00,
2013-03-08 23:32:00,37.0,25.0,-100.00,SE,134,2.0,6.0,61,0.00,,,0.00,,2013-03-09 04:32:00,
2013-03-08 23:42:00,37.0,25.0,-100.00,SE,134,2.0,6.0,61,0.00,,,0.00,,2013-03-09 04:42:00,
2013-03-08 23:52:00,37.0,25.0,-100.00,SE,134,2.0,6.0,61,0.00,,,0.00,,2013-03-09 04:52:00,